Mankato, MN

7:51 AM CDT on August 20, 2019 (GMT -0500)
Mankato Regional

Weather History for KMKT - July, 2019

Change the Weather History Date:

Monday, July 22, 2019

  Actual Average Record
Temperature  
Mean Temperature 66 °F -  
Max Temperature 75 °F 78 °F 91 °F (2016)
Min Temperature 57 °F 61 °F 53 °F (2000)
Cooling Degree Days 1    
Growing Degree Days 16 (Base 50)    
Moisture  
Dew Point 55 °F    
Average Humidity 68    
Maximum Humidity 93    
Minimum Humidity 44    
Precipitation  
Precipitation 0.00 in - - ()
Sea Level Pressure  
Sea Level Pressure 30.22 in    
Wind  
Wind Speed 8 mph (NNW)    
Max Wind Speed 15 mph    
Max Gust Speed -    
Visibility 10 miles    
Events      
Averages and records for this station are not official NWS values.
T = Trace of Precipitation, MM = Missing Value Source: NWS Daily Summary

Daily Weather History Graph

Daily Weather History Graph

Search for Another Location

Airport or City:

Astronomy

Jul. 22, 2019 Rise Set
Actual Time 5:52 AM CDT 8:51 PM CDT
Civil Twilight 5:18 AM CDT 9:25 PM CDT
Nautical Twilight 4:34 AM CDT 10:09 PM CDT
Astronomical Twilight 3:41 AM CDT 11:00 PM CDT
Moon No Moon Rise 11:20 AM CDT (7/22)
Length of Visible Light 16h 07m
Length of Day
14h 58m
Waning Gibbous, 72% of the Moon is Illuminated
Jul 22
Waning Gibbous
Jul 24
Last Quarter
Jul 31
New
Aug 7
First Quarter
Aug 15
Full

Hourly Weather History & Observations

Time (CDT) Temp. Dew Point Humidity Pressure Visibility Wind Dir Wind Speed Gust Speed Precip Events Conditions
12:56 AM 64.0 °F 60.1 °F 87% 30.15 in 10.0 mi NNW 8.1 mph - N/A   Clear
1:56 AM 62.1 °F 59.0 °F 90% 30.16 in 10.0 mi NNW 6.9 mph - N/A   Clear
2:56 AM 61.0 °F 59.0 °F 93% 30.17 in 10.0 mi NNW 6.9 mph - N/A   Clear
3:56 AM 60.1 °F 57.9 °F 93% 30.18 in 10.0 mi NNW 5.8 mph - N/A   Clear
4:56 AM 59.0 °F 57.0 °F 93% 30.19 in 10.0 mi North 6.9 mph - N/A   Clear
5:56 AM 57.9 °F 55.9 °F 93% 30.21 in 10.0 mi NNW 5.8 mph - N/A   Clear
6:56 AM 59.0 °F 57.0 °F 93% 30.22 in 10.0 mi North 5.8 mph - N/A   Clear
7:56 AM 62.1 °F 55.0 °F 78% 30.24 in 10.0 mi North 6.9 mph - N/A   Clear
8:56 AM 64.9 °F 54.0 °F 68% 30.25 in 10.0 mi NNE 11.5 mph - N/A   Clear
9:56 AM 66.9 °F 53.1 °F 61% 30.25 in 10.0 mi North 13.8 mph - N/A   Clear
10:56 AM 69.1 °F 50.0 °F 51% 30.26 in 10.0 mi NNE 15.0 mph - N/A   Clear
11:56 AM 70.0 °F 50.0 °F 49% 30.27 in 10.0 mi North 9.2 mph - N/A   Clear
12:56 PM 71.1 °F 51.1 °F 49% 30.27 in 10.0 mi NNE 11.5 mph - N/A   Partly Cloudy
1:56 PM 73.0 °F 51.1 °F 46% 30.25 in 10.0 mi NNE 9.2 mph - N/A   Scattered Clouds
2:56 PM 73.9 °F 53.1 °F 48% 30.25 in 10.0 mi NNW 12.7 mph - N/A   Mostly Cloudy
3:56 PM 75.0 °F 53.1 °F 46% 30.24 in 10.0 mi North 13.8 mph - N/A   Partly Cloudy
4:56 PM 73.9 °F 54.0 °F 50% 30.23 in 10.0 mi North 11.5 mph - N/A   Scattered Clouds
5:56 PM 75.0 °F 52.0 °F 44% 30.22 in 10.0 mi NNW 12.7 mph - N/A   Scattered Clouds
6:56 PM 73.9 °F 54.0 °F 50% 30.21 in 10.0 mi NNW 10.4 mph - N/A   Partly Cloudy
7:56 PM 72.0 °F 55.9 °F 57% 30.22 in 10.0 mi NW 4.6 mph - N/A   Clear
8:56 PM 69.1 °F 57.9 °F 68% 30.22 in 10.0 mi NW 3.5 mph - N/A   Clear
9:56 PM 66.9 °F 57.0 °F 70% 30.22 in 10.0 mi NW 3.5 mph - N/A   Clear
10:56 PM 64.9 °F 55.9 °F 73% 30.23 in 10.0 mi NW 4.6 mph - N/A   Clear
11:56 PM 64.0 °F 55.9 °F 75% 30.24 in 10.0 mi WNW 4.6 mph - N/A   Clear